Location: Drocourt
(49.0571°N, 1.7669°E)
Time: 15:29:13
(UTC+00:00)

Vanguard 1 Rocket - Pass Details

Date: 17 April 2024
Orbit: 651 x 4220 km, 34.3° (Epoch: 19 May)

Event Time Altitude Azimuth Distance (km) Brightness Sun altitude
Rises 23:37:14 0° 262° (W) 4,514 10.9 -30.3°
Reaches altitude 10° 23:40:09 10° 251° (WSW) 3,912 10.5 -30.3°
Enters shadow 23:42:55 20° 238° (WSW) 3,540 10.1 -30.3°
Exits shadow 00:08:40 - 138° (SE) 7,431 11.7 -30.3°
Sets 00:11:22 0° 135° (SE) 7,999 11.9 -30.2°
